📊 Raw Sensor Data

Showing records 52576 to 52600 of 85,295 total

ID Distance (ft) Battery V Battery A Int Temp (°F) Int Humid (%) Ext Temp (°F) Solar V RSSI SNR Time Stamp
32732 13.2 3.73 0 58 35 54 5.10 -79 8 02/18/2025 10:45 AM
32731 13.2 3.97 0 57 35 55 5.10 -79 8 02/18/2025 10:30 AM
32730 13.2 3.73 0 55 35 54 5.10 -81 8 02/18/2025 10:15 AM
32729 13.2 3.73 0 53 35 53 5.10 -79 8 02/18/2025 10:00 AM
32728 13.1 3.73 0 52 36 52 5.10 -80 7 02/18/2025 09:45 AM
32727 13.2 3.74 0 51 35 52 5.10 -79 7 02/18/2025 09:30 AM
32726 13.2 3.74 0 50 35 51 5.10 -80 7 02/18/2025 09:15 AM
32725 13.2 3.74 0 49 35 51 5.10 -81 8 02/18/2025 09:00 AM
32724 13.1 3.81 0 48 35 51 5.10 -81 5 02/18/2025 08:45 AM
32723 13.1 3.75 0 47 35 51 5.10 -83 7 02/18/2025 08:30 AM
32722 13.0 3.76 0 45 35 48 5.10 -84 8 02/18/2025 08:15 AM
32721 13.0 3.93 72 44 36 47 4.50 -84 8 02/18/2025 08:00 AM
32720 13.0 3.92 25 42 36 44 4.50 -82 8 02/18/2025 07:45 AM
32719 13.0 3.80 14 41 36 43 4.50 -82 8 02/18/2025 07:30 AM
32718 13.0 3.81 10 40 37 42 4.50 -81 8 02/18/2025 07:15 AM
32717 13.0 3.62 0 39 37 42 4.50 -82 8 02/18/2025 07:00 AM
32716 13.0 3.72 -6 39 38 42 4.00 -83 8 02/18/2025 06:45 AM
32715 13.0 3.77 -5 40 37 41 0.30 -81 8 02/18/2025 06:30 AM
32714 13.0 3.73 -5 39 38 42 0.10 -83 8 02/18/2025 06:15 AM
32713 13.0 3.73 -5 39 38 41 0.00 -81 8 02/18/2025 06:00 AM
32712 12.9 3.73 -5 39 38 42 0.10 -81 8 02/18/2025 05:45 AM
32711 12.9 3.73 -5 40 37 41 0.00 -81 8 02/18/2025 05:30 AM
32710 13.0 3.73 -5 40 37 42 0.00 -81 8 02/18/2025 05:15 AM
32709 12.9 3.76 -5 40 38 42 0.00 -82 8 02/18/2025 05:00 AM
32708 12.9 3.67 -5 40 37 42 0.00 -82 8 02/18/2025 04:45 AM